When you browse on this site, cookies collect data to enhance your experience and personalize the content and advertising you see.
Visit our Privacy Policy to learn more. By continuing to use the site, you agree to this use of cookies and data.
  • In Hungary
  • List of Countries
  • For 7 days
  • Water Temperature
  • Satellite Maps
  • Weather Map
  • News
  • Weather Widgets
  • user-avatar
    Login

    Hourly Weather Predocin

    Today, 17 January, Thursday

    Time Temperature Precipitation Wind Pressure Humidity
    00:00 0°C° 0 mm 3 mps 742 mmHg 87%
    01:00 +1°C° 0 mm 2 mps 741 mmHg 88%
    02:00 +1°C° 0 mm 3 mps 740 mmHg 83%
    03:00 0°C° 0 mm 4 mps 740 mmHg 79%
    04:00 0°C° 0 mm 4 mps 740 mmHg 74%
    05:00 +1°C° 0 mm 5 mps 740 mmHg 73%
    06:00 +1°C° 0 mm 6 mps 740 mmHg 71%
    07:00 +1°C° 0 mm 5 mps 739 mmHg 73%
    08:00 +2°C° 0 mm 5 mps 740 mmHg 73%
    09:00 +2°C° 0 mm 6 mps 740 mmHg 72%
    10:00 +3°C° 0 mm 6 mps 740 mmHg 72%
    11:00 +4°C° 0 mm 6 mps 740 mmHg 71%
    12:00 +4°C° 0 mm 6 mps 740 mmHg 70%
    13:00 +5°C° 0 mm 6 mps 740 mmHg 69%
    14:00 +6°C° 0 mm 5 mps 740 mmHg 72%
    15:00 +5°C° 0 mm 5 mps 740 mmHg 75%
    16:00 +5°C° 0 mm 4 mps 740 mmHg 78%
    17:00 +4°C° 0 mm 4 mps 740 mmHg 79%
    18:00 +4°C° 0 mm 4 mps 740 mmHg 81%
    19:00 +4°C° 0 mm 4 mps 740 mmHg 82%
    20:00 +3°C° 0 mm 5 mps 740 mmHg 81%
    21:00 +3°C° 0 mm 5 mps 740 mmHg 81%
    22:00 +3°C° 0 mm 5 mps 740 mmHg 80%
    23:00 +2°C° 0 mm 5 mps 740 mmHg 78%

    Tomorrow, 18 January, Friday

    Time Temperature Precipitation Wind Pressure Humidity
    00:00 +2°C° 0 mm 5 mps 741 mmHg 77%
    01:00 +2°C° 0 mm 6 mps 741 mmHg 75%
    02:00 +1°C° 0 mm 5 mps 741 mmHg 77%
    03:00 +1°C° 0 mm 5 mps 742 mmHg 78%
    04:00 0°C° 0 mm 4 mps 742 mmHg 80%
    05:00 0°C° 0 mm 4 mps 743 mmHg 79%
    06:00 -1°C° 0 mm 4 mps 743 mmHg 79%
    07:00 -1°C° 0 mm 4 mps 744 mmHg 78%
    08:00 -1°C° 0 mm 5 mps 745 mmHg 76%
    09:00 -2°C° 0 mm 6 mps 746 mmHg 73%
    10:00 -2°C° 0 mm 7 mps 746 mmHg 70%
    11:00 -2°C° 0 mm 7 mps 747 mmHg 68%
    12:00 -2°C° 0 mm 7 mps 748 mmHg 65%
    13:00 -2°C° 0 mm 7 mps 749 mmHg 63%
    14:00 -3°C° 0 mm 6 mps 749 mmHg 64%
    15:00 -2°C° 0 mm 5 mps 750 mmHg 66%
    16:00 -2°C° 0 mm 4 mps 750 mmHg 68%
    17:00 -3°C° 0 mm 4 mps 751 mmHg 71%
    18:00 -2°C° 0 mm 3 mps 751 mmHg 73%
    19:00 -4°C° 0 mm 3 mps 752 mmHg 76%
    20:00 -4°C° 0 mm 3 mps 752 mmHg 77%
    21:00 -3°C° 0 mm 2 mps 752 mmHg 78%
    22:00 -3°C° 0 mm 2 mps 753 mmHg 78%
    23:00 -3°C° 0 mm 2 mps 753 mmHg 77%

    Day after tomorrow, 19 January, Saturday

    Time Temperature Precipitation Wind Pressure Humidity
    00:00 -3°C° 0 mm 2 mps 753 mmHg 75%
    01:00 -3°C° 0 mm 2 mps 753 mmHg 73%
    02:00 -3°C° 0 mm 2 mps 753 mmHg 70%
    03:00 -2°C° 0 mm 2 mps 753 mmHg 66%
    04:00 -2°C° 0 mm 2 mps 753 mmHg 63%
    05:00 -2°C° 0 mm 2 mps 753 mmHg 63%
    06:00 -2°C° 0 mm 2 mps 753 mmHg 64%
    07:00 0°C° 0 mm 1 mps 753 mmHg 64%
    08:00 0°C° 0 mm 1 mps 753 mmHg 62%
    09:00 +1°C° 0 mm 1 mps 753 mmHg 60%
    10:00 +1°C° 0 mm 1 mps 754 mmHg 57%
    11:00 +2°C° 0 mm 1 mps 753 mmHg 56%
    12:00 +2°C° 0 mm 1 mps 753 mmHg 55%
    13:00 +3°C° 0 mm 1 mps 753 mmHg 54%
    14:00 +2°C° 0 mm 1 mps 753 mmHg 57%
    15:00 +2°C° 0 mm 1 mps 752 mmHg 60%
    16:00 -1°C° 0 mm 2 mps 752 mmHg 64%
    17:00 -2°C° 0 mm 2 mps 752 mmHg 65%
    18:00 -2°C° 0 mm 2 mps 752 mmHg 67%
    19:00 -3°C° 0 mm 2 mps 752 mmHg 68%
    20:00 -3°C° 0 mm 2 mps 752 mmHg 68%
    21:00 -3°C° 0 mm 2 mps 752 mmHg 68%
    22:00 -3°C° 0 mm 2 mps 752 mmHg 68%
    23:00 -3°C° 0 mm 2 mps 752 mmHg 67%

    20 January, Sunday

    Time Temperature Precipitation Wind Pressure Humidity
    00:00 -3°C° 0 mm 2 mps 751 mmHg 67%
    01:00 -3°C° 0 mm 2 mps 751 mmHg 66%
    02:00 -3°C° 0 mm 2 mps 751 mmHg 66%
    03:00 -1°C° 0 mm 1 mps 750 mmHg 66%
    04:00 -1°C° 0 mm 1 mps 750 mmHg 66%
    05:00 -2°C° 0 mm 1 mps 750 mmHg 67%
    06:00 -2°C° 0 mm 1 mps 750 mmHg 67%
    07:00 -2°C° 0 mm 1 mps 750 mmHg 68%
    08:00 -2°C° 0 mm 0 mps 750 mmHg 65%
    09:00 -2°C° 0 mm 0 mps 750 mmHg 62%
    10:00 -1°C° 0 mm 0 mps 751 mmHg 60%
    11:00 0°C° 0 mm 1 mps 750 mmHg 56%
    12:00 +1°C° 0 mm 1 mps 750 mmHg 52%
    13:00 +1°C° 0 mm 1 mps 750 mmHg 48%
    14:00 +1°C° 0 mm 1 mps 750 mmHg 50%
    15:00 0°C° 0 mm 1 mps 751 mmHg 52%
    16:00 0°C° 0 mm 1 mps 751 mmHg 54%
    17:00 -1°C° 0 mm 1 mps 751 mmHg 56%
    18:00 -1°C° 0 mm 1 mps 751 mmHg 57%
    19:00 -1°C° 0 mm 1 mps 752 mmHg 58%
    20:00 -1°C° 0 mm 1 mps 752 mmHg 59%
    21:00 -2°C° 0 mm 1 mps 752 mmHg 61%
    22:00 -2°C° 0 mm 1 mps 753 mmHg 62%
    23:00 -2°C° 0 mm 1 mps 753 mmHg 64%

    21 January, Monday

    Time Temperature Precipitation Wind Pressure Humidity
    00:00 -2°C° 0 mm 1 mps 753 mmHg 67%
    01:00 -2°C° 0 mm 1 mps 753 mmHg 69%
    02:00 -2°C° 0 mm 1 mps 753 mmHg 72%
    03:00 -2°C° 0 mm 1 mps 754 mmHg 74%
    04:00 -2°C° 0 mm 1 mps 754 mmHg 76%
    05:00 -3°C° 0 mm 1 mps 754 mmHg 77%
    06:00 -3°C° 0 mm 1 mps 754 mmHg 79%
    07:00 -3°C° 0 mm 1 mps 754 mmHg 80%
    08:00 -2°C° 0 mm 1 mps 754 mmHg 76%
    09:00 -2°C° 0 mm 1 mps 755 mmHg 72%
    10:00 -1°C° 0 mm 1 mps 755 mmHg 69%
    11:00 0°C° 0 mm 1 mps 755 mmHg 66%
    12:00 0°C° 0 mm 1 mps 754 mmHg 63%
    13:00 +1°C° 0 mm 1 mps 754 mmHg 60%
    14:00 +1°C° 0 mm 1 mps 754 mmHg 63%
    15:00 0°C° 0 mm 1 mps 754 mmHg 66%
    16:00 0°C° 0 mm 1 mps 753 mmHg 69%
    17:00 -3°C° 0 mm 2 mps 753 mmHg 71%
    18:00 -3°C° 0 mm 2 mps 753 mmHg 74%
    19:00 -3°C° 0 mm 2 mps 753 mmHg 77%
    20:00 -4°C° 0 mm 2 mps 753 mmHg 78%
    21:00 -4°C° 0 mm 2 mps 753 mmHg 79%
    22:00 -4°C° 0 mm 2 mps 753 mmHg 80%
    23:00 -4°C° 0 mm 2 mps 752 mmHg 81%

    22 January, Tuesday

    Time Temperature Precipitation Wind Pressure Humidity
    00:00 -5°C° 0 mm 3 mps 752 mmHg 83%
    01:00 -5°C° 0 mm 3 mps 752 mmHg 84%
    02:00 -5°C° 0 mm 3 mps 751 mmHg 83%
    03:00 -5°C° 0 mm 3 mps 750 mmHg 83%
    04:00 -5°C° 0 mm 2 mps 750 mmHg 82%
    05:00 -5°C° 0 mm 2 mps 750 mmHg 81%
    06:00 -5°C° 0 mm 2 mps 749 mmHg 79%
    07:00 -6°C° 0 mm 3 mps 749 mmHg 77%
    08:00 -6°C° 0 mm 3 mps 749 mmHg 72%
    09:00 -5°C° 0 mm 3 mps 748 mmHg 66%
    10:00 -4°C° 0 mm 3 mps 748 mmHg 61%
    11:00 -4°C° 0 mm 3 mps 747 mmHg 59%
    12:00 -2°C° 0 mm 3 mps 747 mmHg 56%
    13:00 -1°C° 0 mm 3 mps 746 mmHg 54%
    14:00 -2°C° 0 mm 3 mps 745 mmHg 56%
    15:00 -2°C° 0 mm 3 mps 745 mmHg 59%
    16:00 -2°C° 0 mm 3 mps 745 mmHg 61%
    17:00 -4°C° 0 mm 3 mps 745 mmHg 65%
    18:00 -4°C° 0 mm 3 mps 744 mmHg 69%
    19:00 -3°C° 0 mm 2 mps 744 mmHg 72%
    20:00 -4°C° 0 mm 2 mps 744 mmHg 74%
    21:00 -4°C° 0 mm 2 mps 744 mmHg 76%
    22:00 -4°C° 0 mm 2 mps 744 mmHg 77%
    23:00 -4°C° 0 mm 2 mps 744 mmHg 78%
    Show more